Wind_Speed
15 15 15 14 14 14 14 14 14 15 15 15 15 14 13 13 13 13 14 15 15 16 15 14 13 12 12 11 13 14 16 15 12 9 11 11 11 12 8 8 9 13 11 10 11 8 9 11 12 14 13 9 5 3 5 7 2 2 2 1 2 2 1 2 4 2 4 6 5 5 4 4 5 3 1 2 0 1 4 5 7 13 15 18 25 32 34 33
15 15 15 15 15 15 15 14 15 15 15 16 15 15 14 14 13 13 14 15 15 16 15 14 12 11 10 10 11 13 15 15 12 14 18 12 7 11 11 9 9 12 13 14 14 11 10 10 12 12 8 4 3 1 3 3 1 2 1 0 2 3 1 2 5 5 5 7 7 6 4 4 6 3 1 1 3 4 4 6 10 15 17 20 26 31 34 33
15 15 15 15 15 15 15 15 15 15 15 16 16 15 15 15 15 14 15 15 15 15 15 14 11 10 9 9 10 11 13 12 9 12 12 8 13 14 10 10 11 12 14 16 15 14 12 11 12 10 5 4 4 2 3 1 1 2 2 1 3 5 1 3 7 7 6 9 9 6 3 4 5 2 1 3 5 4 4 6 12 18 19 19 20 26 32 31
16 16 15 15 16 15 15 15 15 15 15 16 16 16 16 16 16 16 15 15 15 14 14 13 11 8 7 7 8 10 9 7 5 5 2 3 15 17 15 14 12 12 15 15 14 14 15 14 11 8 5 5 4 4 2 2 3 3 3 3 4 5 3 6 8 7 8 10 9 6 4 5 4 2 2 5 5 2 1 4 13 20 20 20 18 21 25 25
16 16 15 16 16 16 16 15 15 15 16 16 17 17 16 17 17 17 16 15 15 14 14 12 10 7 5 6 6 7 6 2 1 3 4 3 9 15 17 16 14 13 14 15 12 14 15 14 10 6 5 4 2 4 1 5 5 2 4 7 6 4 4 7 10 8 9 10 9 7 7 6 3 2 3 5 4 3 1 3 15 20 19 20 19 20 21 21
16 16 16 16 16 17 17 17 17 16 16 16 16 17 17 17 17 17 17 15 14 14 13 11 8 5 4 5 4 4 2 1 3 2 2 3 4 11 15 16 14 12 14 14 12 12 12 11 8 6 4 4 4 4 4 8 7 2 2 6 9 9 6 7 12 12 9 9 9 7 7 5 4 4 3 3 2 3 2 1 14 19 18 22 20 19 19 18
17 16 16 17 18 19 19 18 18 17 16 16 16 16 17 17 17 17 17 15 14 14 13 11 7 3 4 3 2 2 1 6 11 6 2 1 5 10 15 16 14 13 14 13 12 10 9 9 8 6 4 5 7 7 8 11 10 5 2 5 6 11 9 8 13 14 11 9 8 7 8 5 5 6 3 2 0 2 2 1 14 20 19 21 17 16 18 18
18 17 17 18 18 19 20 19 18 18 17 16 15 15 16 17 18 18 17 16 15 13 12 10 4 1 2 2 1 2 3 8 10 6 4 3 7 11 16 16 14 15 16 15 13 10 9 8 7 6 4 6 7 5 11 11 7 5 5 6 4 6 11 12 13 14 13 8 8 10 9 4 4 5 3 3 2 3 3 2 14 19 17 17 14 15 16 15
19 19 19 20 20 20 21 20 19 18 18 17 16 15 16 16 18 18 16 16 16 13 10 7 2 1 0 2 3 3 2 6 9 6 3 5 9 14 17 16 17 17 15 16 16 12 9 6 7 7 5 6 8 5 11 9 3 6 6 6 6 3 9 12 14 14 12 7 9 12 8 4 4 4 3 2 3 4 4 6 13 18 16 15 13 14 14 13
20 20 21 22 21 21 22 21 20 19 18 17 16 15 15 15 17 18 17 16 15 11 8 5 1 3 1 2 2 2 2 6 6 2 2 7 10 16 18 15 18 19 13 14 15 13 9 7 7 7 6 6 8 6 10 8 6 9 6 8 8 8 9 10 14 15 11 8 9 12 8 6 5 3 1 1 3 4 7 11 14 17 16 14 14 13 13 13
20 21 23 23 23 22 22 21 21 20 19 18 16 15 15 15 16 17 17 15 12 9 6 4 3 4 2 3 2 4 4 6 6 2 3 7 11 18 19 15 19 19 14 12 13 15 13 12 10 5 4 3 6 6 5 3 6 13 11 11 9 10 9 10 15 14 10 7 7 12 9 5 3 1 2 1 2 4 6 11 13 14 14 13 14 12 11 11
21 22 23 24 24 23 22 21 22 21 19 18 16 15 14 15 15 15 16 12 8 6 3 4 5 4 3 3 6 9 6 2 6 7 7 8 10 15 16 16 19 19 16 11 12 18 18 16 12 6 4 4 5 4 5 8 2 12 13 7 1 9 9 9 13 13 9 6 8 11 8 3 1 4 5 5 4 3 2 7 12 12 12 12 13 11 8 10
22 23 24 25 26 25 23 21 21 21 20 18 16 15 13 14 14 13 13 8 5 4 3 4 5 3 2 3 9 13 8 4 5 8 8 9 9 11 13 15 17 18 18 14 13 17 17 16 11 6 6 6 4 4 8 12 7 8 11 5 4 8 4 1 5 11 9 4 7 6 4 3 1 4 3 2 4 6 2 6 11 11 10 11 11 9 8 10
22 23 25 26 26 25 25 22 21 21 20 17 16 14 13 13 12 11 9 3 1 2 3 5 6 3 2 6 11 9 7 5 4 7 10 10 11 12 13 15 17 17 18 18 16 14 13 13 10 6 5 4 4 7 8 7 6 4 6 6 5 5 1 6 3 8 8 1 3 2 2 4 3 3 3 4 6 7 2 8 10 11 10 10 10 9 8 10
22 23 24 25 25 25 24 22 21 20 20 17 15 14 13 12 10 8 5 2 1 2 3 4 6 4 2 9 11 5 6 5 4 8 11 13 13 11 13 16 18 17 18 18 18 14 12 11 7 4 2 4 4 5 6 4 4 3 3 3 4 5 3 2 4 4 6 3 4 1 3 2 2 4 3 5 4 5 2 8 11 12 11 12 10 10 8 9
23 24 24 25 25 25 24 22 21 20 20 17 14 13 12 10 7 6 3 2 2 3 4 2 7 7 3 4 4 4 8 7 9 9 11 14 14 12 14 15 16 17 17 17 15 12 10 7 2 1 1 4 4 3 5 4 4 4 3 3 6 6 3 4 4 5 8 8 2 2 3 2 1 5 5 4 5 5 1 5 8 11 11 12 10 9 9 8
24 25 25 25 25 24 23 22 21 20 19 16 14 11 10 8 6 5 4 2 2 2 4 5 5 6 5 6 4 4 8 10 11 11 12 15 15 15 15 11 10 14 14 14 13 7 6 3 2 1 2 3 3 3 4 3 5 4 4 4 9 10 6 5 3 5 9 9 5 2 3 4 4 6 7 5 5 6 4 4 1 4 7 10 10 9 8 9
24 25 25 25 25 24 23 21 20 21 19 15 12 9 7 7 7 6 4 1 1 3 6 10 7 2 4 8 7 8 11 12 11 11 11 12 14 14 14 8 6 9 8 7 7 4 1 1 3 1 3 3 4 4 4 6 7 6 7 5 7 12 10 9 8 10 13 10 8 6 4 6 9 7 7 7 5 5 3 3 1 3 2 5 9 10 9 9
23 24 24 25 24 23 23 21 20 20 17 13 10 8 7 7 7 6 5 3 2 2 3 3 6 2 4 6 11 11 10 11 10 9 10 10 12 10 10 7 5 6 5 2 4 5 2 1 3 3 4 5 6 7 6 9 11 7 5 4 6 9 10 12 11 13 15 10 8 9 7 9 11 8 7 8 6 5 3 1 1 3 2 1 4 7 10 9
23 24 25 24 22 22 21 19 19 18 14 12 9 7 5 4 2 1 4 6 6 8 7 5 8 8 9 6 8 10 10 12 8 7 9 10 9 8 7 6 5 5 4 4 5 5 4 3 4 5 6 7 9 10 11 13 12 12 8 6 7 5 9 13 13 14 15 9 5 9 10 10 10 9 7 8 7 5 6 4 1 3 3 2 3 4 11 10
23 24 25 24 23 21 19 18 17 14 11 10 7 4 4 5 4 2 1 6 12 14 13 13 12 12 14 12 8 10 8 7 6 5 9 10 7 8 5 5 5 4 4 6 5 5 5 4 5 8 9 11 11 11 12 13 12 11 8 7 9 2 10 16 17 18 15 8 6 10 11 10 9 9 8 9 9 7 7 7 5 4 4 5 4 3 9 10
23 24 24 23 22 20 18 17 15 13 10 7 3 2 6 9 8 9 6 4 9 13 14 15 15 11 15 14 5 12 7 5 6 6 10 11 7 6 5 5 5 4 6 7 5 4 5 5 7 9 10 11 11 10 11 12 11 8 6 6 6 3 12 13 16 19 13 6 8 12 10 8 8 9 9 10 9 8 7 7 7 7 6 7 5 3 5 9
22 23 23 21 21 20 18 17 14 14 12 6 5 6 7 12 12 14 8 4 7 10 11 13 13 10 9 7 3 7 5 5 6 6 11 11 6 5 6 6 6 6 7 7 6 4 4 5 9 11 9 10 11 11 9 9 7 6 6 5 3 7 12 8 11 17 14 9 13 13 8 5 6 7 8 10 9 7 7 6 3 5 6 7 6 2 3 7
21 23 21 19 21 19 18 19 16 16 14 10 12 10 10 14 12 13 7 4 6 8 9 11 11 8 7 3 2 5 5 4 5 7 13 10 5 5 6 7 7 6 6 9 9 7 5 7 11 11 10 9 10 10 8 6 5 6 8 6 5 6 10 10 10 13 11 11 15 15 7 3 6 8 8 8 8 7 8 7 4 4 4 4 5 3 4 5
21 21 20 19 19 17 20 18 13 13 10 9 13 10 10 11 8 11 6 3 3 5 9 9 8 5 5 4 8 7 5 4 6 7 14 10 7 5 5 5 4 5 7 10 10 8 8 8 10 11 11 10 8 7 9 8 5 5 7 9 10 5 6 12 13 11 7 6 14 14 6 3 6 9 9 8 8 7 8 9 8 7 4 3 4 5 6 5
21 20 19 18 18 18 17 9 8 15 10 13 14 6 6 7 9 11 4 1 3 3 4 4 3 4 4 5 8 4 4 5 7 9 16 12 11 6 4 4 3 6 8 9 7 4 6 9 8 10 10 10 8 6 9 9 4 3 5 9 11 6 5 13 15 12 5 6 13 12 5 4 6 7 9 11 11 10 10 10 10 8 6 5 5 6 7 5
21 19 18 17 18 18 11 6 14 19 8 6 10 9 7 8 10 8 2 2 3 2 4 0 1 4 4 5 7 3 2 4 6 10 14 13 11 5 4 4 3 5 6 5 4 3 7 10 9 9 10 9 7 6 6 6 4 3 7 7 8 8 4 7 8 7 5 7 11 11 5 6 6 8 11 13 13 13 12 11 11 10 9 9 6 6 8 6
20 19 17 15 16 17 13 13 17 13 7 11 14 11 9 11 9 4 1 2 1 3 1 0 1 4 4 5 7 4 5 4 6 7 13 15 11 4 5 7 5 6 6 5 4 5 9 10 9 9 8 6 5 6 7 7 5 5 8 5 5 8 5 7 6 2 1 5 6 9 6 7 3 7 11 12 12 13 13 13 12 12 11 11 8 7 8 7
20 19 18 15 14 14 14 15 13 10 11 14 12 10 10 10 6 1 2 2 1 0 1 1 2 3 4 4 7 8 8 4 3 5 12 13 11 5 3 6 9 8 7 6 7 6 7 8 9 8 5 5 7 9 10 8 4 4 9 8 6 6 6 8 5 1 1 1 5 12 9 6 3 6 10 10 11 12 13 12 12 13 13 12 10 8 8 7
20 19 19 17 13 9 10 14 14 11 13 12 10 10 9 8 3 1 2 1 1 2 2 2 2 4 6 5 6 8 9 3 3 5 7 7 8 7 3 5 6 6 6 8 10 8 5 7 8 7 5 5 4 5 6 7 5 4 7 7 6 6 4 5 3 5 1 3 4 12 12 8 5 6 8 9 12 13 13 11 10 12 12 11 10 10 10 8
20 19 19 17 13 9 8 9 10 11 10 8 10 11 9 4 1 2 2 1 1 1 3 2 4 6 7 6 5 6 8 5 6 7 5 3 5 6 3 4 3 2 5 6 7 9 9 7 6 3 3 0 3 2 2 7 5 4 3 4 4 5 4 2 1 4 1 3 4 6 7 8 3 6 8 7 10 13 13 13 13 14 12 10 9 9 10 9
20 20 20 18 16 15 12 8 8 13 10 8 9 8 4 1 2 3 2 1 1 1 2 3 7 6 7 7 6 6 7 5 5 5 4 3 3 4 3 4 1 1 4 4 4 7 8 5 5 4 3 4 4 1 3 7 4 2 1 3 3 2 3 1 1 2 2 4 5 6 0 4 1 6 12 12 13 14 13 13 14 14 13 11 10 9 9 8
20 21 22 19 17 16 14 10 8 11 11 10 8 3 1 2 1 4 4 3 0 0 6 2 8 6 6 6 5 7 7 4 4 2 2 4 3 4 6 8 6 4 3 3 4 4 3 4 2 6 6 3 2 3 3 3 3 3 2 2 4 1 2 2 1 2 1 4 7 7 2 4 2 6 11 13 14 15 14 13 13 13 12 11 10 10 10 9
21 21 22 19 18 16 11 7 6 8 11 10 6 2 1 2 2 5 5 5 2 2 5 1 6 6 6 6 5 7 6 3 8 5 2 4 3 3 5 9 10 7 3 3 4 3 3 3 4 5 6 8 8 7 4 1 1 5 3 1 4 3 2 3 2 2 1 4 7 5 1 3 2 4 9 12 11 11 12 11 10 10 9 10 10 10 11 10
21 20 20 19 18 13 7 4 3 6 10 8 3 2 2 1 2 5 3 4 5 3 4 3 1 2 4 5 6 8 6 4 9 8 4 5 4 4 6 6 10 9 1 1 3 2 5 4 5 6 7 12 11 7 5 4 2 4 4 2 3 3 3 2 3 5 5 3 2 1 2 3 3 2 3 9 11 9 10 10 9 9 9 9 9 9 9 9
21 21 18 17 17 11 5 4 3 6 7 5 2 3 2 1 2 5 3 3 6 7 9 6 3 3 4 5 5 9 9 4 6 6 4 6 4 3 5 2 4 6 3 2 3 2 2 2 2 3 9 10 10 9 7 5 2 3 4 4 3 3 4 1 3 5 5 3 1 3 5 4 5 4 5 4 8 6 7 10 7 7 8 9 7 7 8 7
22 19 15 17 19 14 7 4 6 7 5 4 2 3 4 1 2 5 4 6 7 5 7 5 1 2 0 1 4 6 6 2 5 5 2 6 2 5 2 6 7 3 6 4 1 4 3 3 9 6 10 7 3 5 5 4 4 2 3 3 3 3 3 2 1 2 2 3 2 7 12 8 5 3 1 4 8 6 5 8 8 7 8 7 4 3 5 4
19 14 13 17 12 11 10 7 8 7 4 3 3 3 6 3 3 4 4 6 7 3 5 5 2 3 5 5 6 1 4 3 3 3 1 2 0 7 6 6 9 9 8 6 1 4 5 2 8 8 7 6 5 2 4 5 3 1 1 2 1 3 2 1 3 1 2 3 1 5 10 6 3 4 6 7 8 6 6 6 7 10 9 7 5 4 4 4
12 5 7 12 5 10 9 9 8 6 1 3 3 1 5 6 5 5 5 6 6 6 4 4 4 2 1 2 6 3 3 3 2 2 2 1 1 7 9 6 7 9 9 7 2 3 4 2 4 7 3 7 3 2 2 3 6 3 1 3 2 3 2 1 3 2 2 2 2 3 2 1 2 0 6 11 10 10 10 7 7 9 10 8 7 6 6 6
8 2 6 8 7 11 9 10 5 3 1 2 2 1 6 7 4 4 4 4 4 3 1 4 6 4 3 3 5 4 1 3 5 3 2 3 4 8 12 9 7 8 8 7 5 3 3 2 2 5 1 5 1 2 2 2 3 2 1 2 3 1 0 1 1 2 3 2 4 4 1 2 2 4 1 7 10 10 10 10 10 10 10 9 8 8 7 7
4 3 6 7 3 7 8 7 3 2 1 2 2 1 5 6 4 4 2 4 5 2 4 5 6 5 5 5 5 5 2 5 6 4 4 6 5 6 8 8 7 7 7 6 4 3 3 2 2 3 1 2 2 4 3 6 4 1 3 1 4 3 1 2 3 4 4 2 5 7 3 1 2 1 1 1 6 8 8 10 12 11 12 12 11 10 9 8
3 2 5 5 1 2 4 3 2 2 1 2 4 3 4 3 2 3 2 6 7 4 5 5 5 7 4 2 2 4 2 5 6 5 4 4 5 3 5 8 9 7 4 2 3 4 2 1 3 2 1 4 6 9 6 10 8 3 0 2 4 3 2 1 3 4 3 2 5 6 5 3 2 2 2 1 4 7 8 10 12 11 12 13 12 11 10 10
2 6 9 3 4 5 3 2 3 1 2 2 5 2 2 3 4 4 3 5 3 3 4 3 4 6 5 2 2 3 4 5 4 3 2 1 2 3 5 8 9 8 5 3 3 4 3 2 4 4 2 7 5 8 9 8 5 3 3 2 5 5 2 2 2 2 2 4 5 5 3 3 2 1 2 3 4 6 9 13 14 11 10 12 12 11 10 10
3 6 7 2 7 7 4 1 1 1 0 1 1 2 2 3 6 7 5 5 2 4 5 2 6 6 4 5 3 3 6 5 1 2 2 1 1 2 3 6 8 6 4 2 1 3 3 2 3 3 3 6 4 3 2 2 2 3 3 4 8 7 2 4 1 2 4 3 5 7 3 1 1 2 3 5 6 5 7 14 15 11 9 10 11 11 10 9
3 4 4 5 9 7 2 2 1 1 2 3 2 2 2 4 3 4 5 5 3 3 2 3 5 6 3 1 1 2 6 5 2 1 4 2 2 1 2 5 5 4 4 3 5 3 1 1 1 2 1 2 2 1 2 3 3 2 4 7 10 7 4 4 1 3 4 1 3 7 7 5 3 4 4 5 6 4 6 13 15 11 10 10 9 9 9 8
2 3 3 1 3 2 1 2 1 3 3 3 3 4 3 3 5 1 3 3 3 3 2 3 6 7 3 2 1 2 5 7 2 1 2 3 2 1 2 3 5 3 4 7 6 3 1 1 1 3 2 1 2 4 3 3 3 3 5 11 13 5 6 5 3 4 4 3 3 3 10 13 10 10 9 4 4 5 8 15 15 10 10 11 9 9 10 9
2 2 3 2 3 3 2 3 4 3 3 3 1 3 5 4 4 3 2 2 3 3 3 5 6 6 5 5 3 5 7 5 0 4 4 3 4 1 4 1 4 2 5 5 6 4 2 2 2 1 1 2 3 5 7 6 5 5 7 12 12 2 7 6 4 5 5 5 4 2 9 14 11 12 13 9 6 6 8 13 14 12 11 11 10 11 13 12
2 2 2 2 2 3 4 4 5 5 7 6 2 2 5 5 5 4 4 3 3 3 3 4 5 8 7 5 3 2 5 5 4 6 6 5 2 1 1 1 3 3 3 4 6 3 2 2 5 2 3 6 5 6 7 5 5 7 10 13 11 4 6 5 3 2 4 6 7 7 9 11 10 10 12 12 10 8 8 11 14 13 12 12 13 13 13 13
4 3 5 4 3 2 3 3 2 5 6 4 3 4 5 6 8 7 6 5 4 5 3 2 4 9 8 5 4 3 4 2 1 4 6 7 7 2 1 2 4 6 5 5 4 2 3 3 7 6 7 8 5 4 7 7 7 7 10 11 10 10 10 8 6 5 7 8 9 12 13 10 6 4 6 11 12 10 9 11 13 14 13 12 13 14 13 13
4 3 5 6 5 3 2 4 2 3 3 0 2 5 6 8 8 6 6 7 5 6 5 4 8 8 8 7 5 5 4 3 4 0 3 5 6 4 2 3 4 6 6 3 2 2 3 1 4 5 5 6 6 6 6 6 7 7 9 10 9 9 9 8 7 5 8 8 7 12 14 8 3 1 1 6 10 9 10 11 11 12 14 14 13 13 13 13
9 7 6 4 4 3 2 2 1 2 3 2 2 5 6 6 6 4 4 6 6 7 7 7 9 7 6 7 6 6 5 4 5 2 3 4 5 3 3 4 4 5 5 3 3 4 3 2 2 4 3 3 6 7 5 4 5 5 7 9 5 3 4 5 5 4 7 10 11 10 8 4 4 4 4 7 11 13 13 12 10 9 12 14 13 12 12 12
13 11 10 4 3 3 2 1 2 3 2 2 3 4 6 5 5 5 3 2 3 5 7 7 7 4 4 7 7 6 5 4 2 1 3 4 4 2 2 2 3 4 5 4 3 2 2 3 3 3 2 2 5 7 6 4 3 3 4 6 6 3 2 3 4 4 8 10 10 7 4 5 7 8 8 8 10 12 11 10 9 9 11 12 13 13 12 11
Wind_Direction
352 350 348 346 344 344 343 341 339 336 335 333 331 331 328 327 326 324 322 319 319 318 318 319 317 319 318 323 327 327 326 320 319 290 244 249 241 215 231 249 210 196 194 188 190 206 210 207 230 238 247 244 207 218 127 106 120 117 59 12 287 283 245 192 166 164 129 143 151 140 171 134 128 174 230 277 172 116 90 93 121 126 127 128 132 133 130 134
350 347 345 344 343 343 341 340 338 335 333 331 330 329 326 327 326 325 322 319 318 317 318 317 317 319 316 326 330 329 329 321 308 272 254 253 223 204 217 230 210 197 190 189 195 208 213 203 217 224 237 244 199 233 87 108 196 102 67 48 277 270 182 169 158 154 144 142 131 134 184 147 136 165 196 170 118 126 108 125 139 123 121 127 134 134 132 139
347 345 344 344 343 341 340 337 335 334 332 330 328 326 325 326 327 326 323 321 319 317 316 316 319 317 316 328 334 338 332 320 295 265 270 246 203 200 211 220 208 199 196 194 195 207 220 219 216 209 215 234 194 116 69 161 212 117 112 31 271 260 224 144 155 166 148 133 128 137 174 124 129 163 188 136 114 121 118 133 138 127 130 137 137 136 139 142
346 345 344 343 342 340 339 336 333 331 329 328 327 325 325 325 326 326 324 323 320 318 315 316 321 316 319 333 341 345 331 314 275 247 323 181 194 197 208 218 207 203 206 200 204 219 231 238 232 208 210 237 179 111 92 190 175 137 146 179 240 266 241 162 162 169 142 132 134 136 133 117 130 165 153 124 103 104 138 144 140 135 139 141 138 141 141 137
346 343 342 341 340 339 339 337 333 328 326 325 324 323 324 326 325 326 326 324 320 318 315 314 320 317 318 340 359 355 335 337 140 148 80 109 189 193 200 211 208 208 209 205 221 240 245 250 247 221 214 244 175 101 195 207 170 160 183 185 198 242 249 186 171 153 138 135 132 133 131 129 143 150 149 131 123 170 163 142 142 138 141 142 142 144 138 135
344 342 341 340 339 339 338 337 333 328 324 322 322 322 323 325 325 326 326 324 322 318 316 312 318 324 319 347 22 360 337 313 330 334 54 62 159 187 195 202 207 208 203 206 229 246 249 247 244 233 217 230 208 160 210 209 179 170 208 201 196 198 216 189 163 143 141 143 134 137 126 127 140 133 151 143 134 147 99 132 145 138 140 143 144 145 139 141
343 342 340 338 337 337 337 335 333 329 324 321 322 321 321 324 325 327 325 323 324 320 315 310 313 328 319 344 16 336 222 266 291 281 248 65 141 181 194 198 203 197 192 204 222 234 243 235 227 230 226 230 224 192 197 204 185 162 224 253 217 194 199 178 155 142 146 143 130 130 121 131 143 132 148 146 90 123 101 159 143 137 140 144 147 146 140 146
344 342 339 337 335 335 335 333 331 328 324 324 322 319 320 323 325 325 323 323 323 320 314 306 312 349 328 347 302 258 225 255 263 233 206 181 154 175 187 191 198 191 189 203 211 220 237 234 225 230 235 232 249 213 181 189 183 173 218 247 258 211 188 165 153 146 141 131 127 127 125 133 119 122 151 167 176 137 118 146 140 138 142 146 149 144 141 150
344 342 339 338 335 334 333 331 329 327 327 327 323 320 320 323 324 322 323 323 320 318 310 299 295 140 14 330 283 269 251 224 215 209 206 192 173 175 181 184 191 188 193 209 214 225 232 226 219 229 254 245 268 249 171 172 179 193 211 243 260 184 162 162 154 145 134 133 135 124 124 132 108 109 119 154 172 146 152 168 150 143 147 151 149 145 145 154
343 340 338 338 336 334 332 330 328 327 329 328 323 321 320 322 322 321 321 320 318 313 301 285 208 151 182 272 251 277 249 165 174 227 200 191 181 173 176 182 185 183 195 211 216 232 237 239 230 224 251 251 272 259 183 184 173 168 181 244 239 127 138 176 151 139 135 142 137 123 125 132 129 139 129 167 183 179 167 160 155 147 150 153 147 147 152 157
342 339 337 337 336 335 332 330 328 327 329 327 323 320 319 320 320 320 320 319 317 308 288 250 178 158 233 263 241 263 239 154 127 81 164 182 179 175 173 178 183 183 197 209 214 231 238 250 262 250 245 262 282 268 227 233 158 158 170 222 225 127 150 181 145 141 139 129 121 116 107 99 126 95 23 18 143 174 157 145 154 153 152 152 147 149 159 160
342 338 337 336 335 334 332 330 327 327 328 325 321 318 317 318 317 318 319 319 314 299 264 216 166 155 251 271 237 233 238 198 132 129 164 180 182 182 172 175 185 186 198 209 212 226 238 251 264 269 278 319 298 268 305 319 224 171 176 199 155 112 155 176 145 141 123 112 133 119 93 80 123 58 40 3 40 78 116 151 158 157 155 151 148 152 161 157
340 337 336 336 335 333 333 332 328 325 326 324 318 315 313 313 314 317 318 321 310 280 220 187 157 162 267 265 241 234 250 274 145 138 170 183 186 189 181 182 188 191 205 220 219 221 233 252 268 279 290 308 315 331 326 312 286 194 180 164 93 109 147 240 139 122 92 102 155 127 98 160 138 77 95 9 45 64 27 202 167 157 160 148 146 158 160 152
338 336 337 336 334 333 332 332 331 326 324 323 316 312 310 310 312 313 312 309 302 246 189 166 153 158 237 255 271 265 256 257 174 170 179 181 184 186 198 194 188 199 215 233 245 239 228 240 266 280 293 307 316 328 319 304 297 241 183 164 126 120 111 323 335 98 77 293 203 95 111 163 123 102 100 48 47 51 357 222 173 155 162 148 147 165 159 153
337 337 337 337 335 333 332 332 333 325 321 322 314 308 309 309 309 309 301 245 219 203 178 169 176 183 270 271 287 279 218 237 239 206 180 182 186 180 206 200 186 202 218 233 253 263 238 222 239 251 293 307 287 295 295 289 293 268 196 174 120 116 151 241 260 148 124 199 251 348 111 141 114 124 93 74 73 49 310 220 172 160 162 148 152 167 161 163
337 338 338 337 335 332 331 332 332 324 321 321 312 307 309 311 312 310 293 249 257 181 156 177 198 204 274 293 281 212 201 230 243 219 185 190 191 177 198 201 187 201 217 227 241 268 266 229 215 308 296 284 265 255 275 286 278 248 199 177 121 113 160 185 234 210 158 147 201 302 120 127 139 137 126 127 121 94 285 239 171 166 163 150 154 166 163 168
337 338 337 336 334 331 329 330 330 324 321 319 313 310 311 311 309 308 294 270 291 208 214 276 242 210 253 289 288 224 207 224 227 209 193 197 198 181 183 197 193 197 215 225 218 242 280 240 116 33 248 256 263 240 248 258 252 222 201 197 140 138 170 167 169 193 165 146 151 189 144 132 149 153 148 157 148 135 193 255 179 156 162 152 154 165 163 166
336 336 335 334 332 329 326 326 327 323 321 320 315 315 320 308 293 298 296 264 358 283 269 281 274 222 250 257 251 218 199 207 205 195 194 198 205 192 176 186 196 186 206 229 206 192 275 153 127 186 220 220 251 239 213 223 235 199 180 205 159 152 168 169 163 169 168 157 149 167 170 132 139 154 151 153 153 137 171 249 8 61 94 144 159 167 158 165
335 333 332 333 331 328 325 325 325 321 321 320 315 316 315 298 284 282 261 218 154 265 278 239 204 211 306 246 225 221 190 177 183 184 187 193 203 193 172 187 202 186 189 200 183 174 181 139 146 209 226 204 219 226 232 239 248 248 215 224 196 170 170 166 158 164 165 150 149 163 154 140 145 156 155 144 137 118 125 253 11 89 88 72 182 172 154 167
335 332 333 332 331 330 326 326 325 322 321 322 329 327 307 301 295 230 218 220 215 235 264 249 210 239 299 298 217 208 161 157 185 191 191 201 191 162 167 200 202 196 198 185 180 178 187 185 178 206 220 219 218 217 240 256 262 280 294 286 260 213 164 153 150 168 164 138 167 165 143 153 153 150 159 144 142 144 146 170 178 128 156 196 258 189 157 167
334 334 334 332 331 332 329 328 327 322 315 317 338 339 298 320 340 4 227 227 226 228 245 261 248 242 267 274 207 169 141 161 207 200 189 195 164 133 158 200 188 192 219 215 203 182 187 204 206 208 213 225 232 217 228 252 262 277 290 285 287 281 141 151 158 172 167 136 169 161 144 166 158 149 165 151 157 175 164 175 184 167 178 199 243 222 165 163
335 335 333 331 331 332 330 328 327 321 308 306 333 263 274 300 321 337 332 269 249 234 229 246 257 253 258 269 186 138 140 187 200 189 172 173 163 144 158 186 195 192 207 225 225 179 187 221 223 217 214 218 237 237 228 240 251 267 272 276 295 105 132 155 161 161 159 135 155 155 148 168 155 151 168 163 168 176 172 180 178 169 185 203 214 232 185 166
334 334 333 331 328 329 329 324 322 313 292 264 230 223 271 297 319 335 324 290 284 259 231 225 242 255 251 280 72 136 196 194 189 192 168 171 193 180 168 184 210 204 195 215 223 190 182 211 223 230 228 213 225 242 245 246 247 248 253 269 265 155 143 150 160 160 162 152 151 148 142 155 148 150 170 176 167 153 169 181 161 166 191 207 203 213 218 177
333 334 333 329 325 328 328 320 315 302 285 260 248 249 286 299 322 347 334 273 284 277 258 220 213 240 245 255 136 193 243 194 199 193 161 176 208 181 188 194 206 218 205 207 215 225 223 202 205 224 240 229 218 225 238 254 253 240 241 255 258 194 148 140 163 173 163 148 150 143 127 153 161 163 172 170 157 150 168 174 173 191 199 199 189 196 238 216
333 333 330 327 323 326 327 322 319 316 304 259 254 268 296 296 334 354 339 279 271 257 253 222 189 219 238 201 165 185 245 215 226 192 154 185 221 184 204 203 198 222 215 211 212 226 241 220 196 203 228 240 231 216 216 228 240 246 236 236 255 254 138 151 167 168 148 148 163 151 123 164 172 173 172 155 155 164 166 174 190 198 197 184 184 200 223 240
333 331 327 324 319 326 332 325 329 330 303 245 258 303 331 323 356 346 325 256 279 217 198 191 165 198 200 193 173 173 258 222 229 191 153 183 228 221 221 202 182 217 220 219 214 212 237 241 216 197 208 226 237 233 220 218 219 269 235 220 251 275 162 171 168 156 158 173 178 172 132 135 169 177 175 161 158 163 168 181 190 190 198 197 190 200 207 226
331 328 324 319 318 330 335 306 323 328 306 269 312 354 358 337 347 339 316 230 264 140 136 196 252 190 175 194 178 143 279 190 201 191 153 171 218 241 252 229 188 217 235 232 217 192 210 233 236 206 199 211 226 234 226 209 175 253 244 202 231 264 237 204 187 170 180 160 178 193 138 119 178 173 166 165 156 157 170 181 186 189 200 202 197 197 199 215
329 326 320 313 317 326 318 305 317 319 321 354 352 350 343 327 327 330 310 301 345 100 124 273 131 169 179 210 201 221 263 189 175 172 147 165 195 217 245 253 269 251 244 247 237 195 192 219 239 218 200 199 215 223 224 221 201 246 259 227 221 243 246 249 245 224 164 114 166 204 142 108 164 158 156 164 157 157 169 179 186 188 194 200 201 198 198 219
328 326 317 309 310 320 326 315 303 290 309 343 350 336 329 317 318 316 259 321 54 160 216 96 102 171 188 206 213 238 253 218 161 151 146 164 194 215 242 264 283 280 272 272 257 219 184 204 232 235 211 193 209 215 211 213 203 243 270 288 289 259 229 224 215 138 309 75 172 204 186 127 133 161 159 163 169 169 170 180 187 186 189 194 196 196 198 218
327 324 318 313 307 317 334 308 290 295 308 324 331 314 298 291 302 304 271 308 128 181 156 61 79 172 192 196 203 233 246 219 123 163 165 162 189 209 276 284 281 299 304 288 267 254 228 199 218 242 226 202 209 203 202 213 193 192 249 282 290 282 272 231 163 95 281 279 207 206 188 138 131 181 174 172 181 173 165 176 184 184 187 186 190 192 190 202
325 323 318 313 303 300 305 290 305 330 320 312 311 288 274 273 224 283 283 130 113 166 173 171 145 173 198 199 200 221 238 216 157 179 189 150 180 191 254 274 274 318 293 279 262 259 256 217 195 223 215 60 31 77 235 249 223 166 215 259 263 291 321 276 139 89 175 252 252 230 170 127 132 186 178 174 169 163 164 174 180 186 185 181 190 190 186 192
322 321 314 307 298 286 276 276 330 338 320 302 301 285 280 313 202 294 338 161 204 23 279 199 151 177 205 207 216 200 224 233 168 174 159 146 201 181 194 231 176 222 274 278 236 236 253 227 157 121 89 35 14 2 259 256 231 139 226 243 233 300 22 81 139 128 218 247 261 277 61 96 111 163 164 161 153 158 171 174 176 186 184 176 184 187 185 186
320 317 310 304 297 285 278 283 309 319 310 295 288 278 2 30 317 313 315 292 270 99 298 285 144 176 200 209 225 188 213 238 136 134 124 155 209 186 203 232 219 207 235 283 254 211 260 300 190 140 117 121 249 248 226 225 182 179 233 186 174 163 79 120 120 124 250 277 267 280 4 78 101 130 142 149 152 160 169 172 176 185 185 175 178 183 178 175
316 315 309 303 296 290 279 270 273 290 295 292 281 255 2 17 320 292 283 301 322 196 273 305 144 177 187 212 230 176 203 211 147 160 186 176 210 195 208 233 231 234 235 260 283 210 215 282 230 186 136 155 203 235 237 270 160 196 239 197 170 178 139 151 149 134 212 259 261 269 93 124 167 130 125 133 140 144 151 162 168 173 183 177 175 179 172 169
315 318 315 307 297 284 244 220 257 271 274 282 277 267 324 22 288 300 314 325 325 321 324 335 200 217 180 211 236 186 188 201 168 173 191 197 209 194 194 217 230 240 267 327 304 266 222 201 180 190 155 159 189 222 244 280 280 202 223 246 202 179 146 152 187 185 189 229 270 329 87 113 121 53 63 122 130 132 142 150 153 161 173 174 174 174 167 171
320 323 317 302 288 270 204 180 230 243 257 280 283 267 291 155 261 311 354 328 320 335 325 305 267 272 192 188 246 206 188 189 183 180 189 201 213 204 180 147 243 228 103 55 306 329 259 252 314 210 176 176 187 190 200 212 213 210 207 225 238 193 164 159 227 210 178 168 178 103 100 95 97 54 350 81 105 102 133 135 134 153 156 155 165 164 161 174
327 324 304 282 269 249 216 191 212 226 248 275 301 306 296 212 277 320 346 317 308 324 320 315 33 334 328 124 278 215 168 128 183 191 199 193 231 350 40 62 32 37 76 73 310 359 6 305 317 281 196 187 156 174 221 217 169 168 197 233 265 228 205 130 133 270 188 162 166 137 142 149 136 134 221 104 86 64 88 106 109 122 121 116 121 126 142 154
326 318 298 286 259 201 180 177 211 233 249 277 301 309 296 309 7 355 350 312 306 6 356 346 32 23 24 360 310 319 67 30 175 173 2 177 168 357 8 54 38 30 36 42 52 344 0 351 312 290 188 137 64 75 286 288 269 229 198 286 278 185 231 139 122 279 231 166 134 139 147 147 122 145 156 129 107 104 95 81 95 109 108 105 105 93 85 76
314 299 292 281 212 153 159 167 203 240 277 319 310 319 303 320 6 15 357 320 335 40 21 350 22 19 37 333 306 355 39 334 344 47 15 337 358 12 15 22 15 12 13 6 344 329 355 61 308 305 108 98 72 139 188 273 284 285 277 324 326 147 179 195 164 209 220 173 125 117 111 346 336 278 147 135 132 131 121 108 103 107 110 115 119 106 76 58
308 296 273 251 149 126 157 171 198 254 155 289 302 352 303 308 346 20 16 330 337 50 34 351 15 346 323 348 321 320 326 314 338 10 50 21 43 39 22 8 349 353 358 340 324 331 346 37 303 289 53 77 65 199 190 228 247 250 104 3 307 267 302 289 239 235 217 174 128 115 63 272 261 318 348 129 124 121 121 116 105 98 97 95 93 90 78 61
304 322 274 271 82 112 168 184 224 258 198 299 298 270 283 290 325 337 14 12 350 49 73 24 11 352 343 355 319 299 5 22 358 17 50 28 44 49 9 353 338 337 340 326 335 6 351 1 320 283 49 19 234 182 241 274 271 251 113 162 260 257 246 282 289 278 255 202 134 129 130 168 146 110 300 127 99 99 106 105 99 93 90 86 80 78 75 66
241 298 272 275 286 175 190 196 242 213 132 292 256 243 270 267 332 326 16 37 1 3 74 60 13 358 348 9 340 321 43 54 14 24 57 41 48 45 355 347 339 335 342 344 5 2 333 314 310 317 25 292 237 167 196 259 272 285 176 206 257 243 186 219 274 283 300 48 96 109 107 97 112 137 145 100 96 109 114 103 94 89 86 86 83 75 72 73
256 298 290 277 162 201 233 229 252 234 138 226 241 240 309 319 9 8 45 68 17 348 42 72 74 33 332 307 14 5 62 71 35 50 106 132 63 19 351 357 355 355 3 5 8 344 326 347 328 323 333 297 260 162 177 231 259 306 308 289 277 258 181 118 193 212 53 72 94 86 81 126 153 124 87 95 101 109 111 102 92 87 85 85 83 75 69 71
308 283 276 174 171 214 257 255 252 276 176 277 273 142 123 19 6 350 2 40 43 38 21 353 105 100 281 295 345 14 67 72 267 153 131 147 69 351 351 17 11 14 28 7 325 328 330 7 356 338 333 326 335 84 127 294 359 354 299 275 266 267 29 60 41 69 60 76 113 104 97 178 140 63 86 109 100 85 101 103 98 95 93 87 84 78 69 68
310 270 249 183 189 207 233 283 284 29 350 333 1 39 128 109 55 330 328 355 7 58 25 298 81 99 219 231 1 334 89 103 252 137 102 97 68 13 60 57 32 27 32 324 288 299 334 357 39 44 21 1 359 323 334 354 343 299 292 286 272 281 37 67 57 57 61 50 96 111 128 137 119 97 89 99 106 117 118 105 98 97 97 93 92 88 77 71
325 282 284 216 204 211 163 278 345 63 7 341 16 2 354 94 95 59 330 353 356 9 346 343 53 59 11 48 82 341 87 119 207 298 87 114 105 13 1 75 81 52 341 321 318 337 16 331 102 112 103 125 191 247 293 358 328 297 305 292 278 296 45 65 81 85 115 106 54 121 139 137 142 134 120 120 144 149 123 107 102 98 98 95 92 91 84 75
281 287 335 23 328 337 37 6 12 54 21 10 15 328 342 19 68 75 35 14 331 318 345 6 46 71 22 14 51 19 27 65 7 321 0 61 98 59 318 314 102 46 309 342 17 28 55 359 324 151 251 289 276 313 345 0 337 338 336 305 284 302 63 52 65 106 131 107 74 134 131 128 140 139 136 148 151 128 113 111 113 111 108 105 97 89 83 78
294 300 10 49 294 348 34 2 356 37 34 20 344 321 359 20 50 58 27 355 335 356 22 2 40 93 80 44 71 33 8 33 21 346 359 14 33 162 277 300 73 21 336 45 46 31 85 356 315 337 345 316 302 319 338 343 336 348 347 326 314 351 63 59 42 65 99 114 143 153 122 116 128 136 141 142 129 120 120 116 115 116 114 110 103 95 88 82
339 340 357 353 325 7 23 312 317 60 48 9 345 9 26 40 53 54 20 355 17 34 17 341 58 96 104 82 78 60 31 55 28 343 350 352 341 340 23 17 37 18 12 55 55 44 89 350 328 6 6 337 327 322 331 342 345 347 343 342 354 11 26 29 4 18 87 118 142 132 113 102 103 120 141 138 133 135 129 115 110 109 104 97 96 95 92 88
356 340 341 332 333 2 349 300 305 79 77 73 351 14 40 51 47 47 24 9 24 26 6 43 65 79 106 104 98 94 93 154 167 128 322 332 344 355 15 11 14 3 3 39 43 28 72 323 330 28 18 336 332 334 336 335 330 334 333 340 11 18 5 7 7 37 102 113 105 107 110 101 81 68 93 110 115 111 97 94 99 106 103 94 88 87 84 83
345 327 334 316 313 343 311 294 338 68 51 42 27 16 43 57 32 24 27 11 20 20 9 42 62 61 83 79 72 89 103 156 166 173 284 324 357 27 48 12 3 1 358 20 23 7 13 321 334 60 53 329 319 317 309 297 306 323 319 317 344 14 342 349 1 23 89 112 111 107 115 127 126 108 63 67 84 83 75 72 72 85 99 99 94 89 83 77
352 337 347 340 292 306 269 250 53 85 68 47 64 42 47 57 31 23 25 351 42 39 4 19 42 39 74 67 40 29 22 1 6 328 308 332 343 11 56 343 348 17 8 10 9 345 5 358 353 52 63 286 281 289 295 307 311 304 310 330 349 352 300 310 327 32 81 112 134 134 139 150 136 120 110 103 97 93 88 80 71 71 83 96 102 100 94 85
Height
797 795 794 792 791 790 789 787 786 785 784 782 781 780 779 778 777 776 775 774 773 772 771 770 769 769 769 768 768 767 765 764 763 764 762 752 750 753 754 756 757 759 761 762 764 765 766 766 766 763 763 763 763 765 767 770 774 782 794 805 806 803 800 793 793 792 791 795 793 790 789 794 797 792 786 783 786 785 785 787 785 783 785 788 791 794 799 803
796 795 793 792 791 789 788 787 786 784 783 782 780 779 778 777 776 775 774 773 772 771 770 769 769 769 768 768 767 766 765 763 763 761 753 746 749 751 753 755 756 758 759 761 762 763 765 765 763 762 764 766 764 766 770 773 777 787 798 807 805 796 789 782 784 785 785 791 791 790 790 791 794 791 787 791 793 788 791 792 789 790 790 791 792 795 800 803
796 794 793 791 790 788 787 786 785 783 782 781 779 778 777 776 775 774 773 772 771 770 769 769 768 768 767 768 767 766 765 763 762 755 744 743 748 749 751 754 755 757 758 760 760 761 762 761 759 760 765 768 765 768 775 776 779 786 795 807 803 787 782 778 779 781 780 783 789 792 789 789 790 787 787 793 795 793 796 795 793 797 796 794 794 795 800 803
795 794 792 790 789 788 786 785 784 782 781 780 778 777 776 775 774 773 772 771 770 769 768 768 768 767 767 767 767 767 764 765 759 747 742 743 745 747 750 752 754 757 757 758 760 761 760 758 757 758 765 771 766 768 778 778 779 785 791 801 794 781 782 779 777 779 777 779 786 789 789 791 788 784 787 791 798 800 796 792 790 794 794 794 795 795 799 802
795 793 791 790 788 787 786 784 783 781 780 779 777 776 775 774 773 772 771 770 769 768 767 767 767 766 767 766 767 766 766 768 755 742 743 743 744 746 748 751 754 756 756 759 760 759 760 758 756 759 766 771 770 775 781 775 773 784 787 787 783 780 784 778 774 778 777 778 784 788 790 791 786 786 788 790 800 801 792 787 785 788 790 792 794 795 799 803
795 793 791 790 788 786 785 783 782 780 779 777 776 775 774 773 772 771 770 769 768 767 766 766 766 766 767 766 767 766 768 766 749 741 744 742 744 745 747 751 752 755 756 759 759 759 760 757 760 765 768 770 773 777 779 771 770 783 784 777 777 776 778 773 771 776 778 780 785 787 787 786 789 792 788 789 794 790 785 785 783 785 787 790 793 795 800 804
793 792 791 789 787 786 784 782 781 779 778 776 775 774 773 772 770 770 768 768 767 766 766 765 765 766 766 767 766 766 769 760 743 742 744 742 745 744 747 750 751 755 755 757 758 759 759 759 764 765 767 771 770 770 772 769 767 778 781 773 771 770 771 769 768 772 776 781 782 781 785 787 793 794 789 789 789 783 783 782 781 785 787 790 794 796 800 803
792 791 790 788 786 785 783 782 779 778 776 775 774 773 772 771 769 769 767 767 766 765 765 764 765 765 766 767 765 767 766 754 742 743 743 742 744 744 747 749 751 753 753 756 755 756 758 760 762 761 768 770 763 764 766 769 770 775 776 770 767 766 765 765 768 771 774 779 779 780 788 791 790 790 790 790 787 782 782 781 781 785 789 792 795 797 800 803
792 790 788 787 785 784 782 780 779 777 775 774 773 771 771 770 768 767 766 766 764 765 764 763 765 765 766 766 765 767 757 743 740 742 742 742 743 744 746 747 750 752 752 755 753 754 757 759 758 756 765 764 758 761 761 770 777 771 768 767 766 766 766 767 770 772 777 779 778 785 793 792 787 789 794 790 786 783 781 784 784 787 792 795 797 798 800 802
791 789 788 786 784 783 781 779 778 776 774 773 772 770 770 768 767 766 765 765 764 764 763 764 764 764 767 765 767 768 749 737 741 741 741 742 742 743 745 746 748 750 752 753 752 753 753 753 751 747 754 757 756 757 756 764 767 760 761 764 765 769 771 771 772 773 777 779 779 787 795 793 787 794 801 792 786 784 783 788 787 789 795 795 797 799 800 802
790 788 787 785 783 782 779 778 776 774 774 772 770 769 768 767 766 765 764 764 762 762 762 763 763 765 766 764 770 764 742 737 741 739 741 742 742 743 743 745 747 749 751 751 751 750 749 747 743 745 754 755 754 755 752 751 751 752 759 765 765 770 776 773 772 774 776 781 782 784 794 795 791 798 801 792 788 788 786 790 790 791 795 795 798 799 800 801
789 787 785 784 782 780 778 777 775 773 772 771 770 768 767 766 765 764 763 763 762 762 762 762 764 765 765 766 766 753 737 738 739 738 741 741 742 743 743 745 746 748 749 749 749 747 747 744 742 751 755 751 756 760 753 743 744 750 756 769 774 776 785 779 772 774 777 785 781 781 800 806 801 802 799 791 792 794 793 794 794 793 795 796 798 799 800 801
788 786 784 783 781 779 777 776 774 772 771 770 768 767 767 765 764 764 762 762 761 761 761 762 763 763 767 765 752 740 736 738 738 739 741 741 743 744 744 746 746 748 748 747 747 745 745 744 743 750 748 751 760 758 750 742 743 750 752 766 784 793 798 787 776 776 782 788 778 782 813 818 806 802 797 792 793 798 803 800 796 795 795 797 798 800 801 800
787 785 783 781 780 778 776 774 773 771 769 768 767 766 766 764 764 763 761 762 761 761 762 763 764 764 768 759 741 736 738 738 739 739 740 741 742 744 744 745 746 747 747 746 744 743 744 742 743 747 746 751 755 751 752 751 747 752 755 762 783 804 808 795 786 784 789 791 778 785 815 818 806 802 798 795 794 798 807 803 796 796 796 797 799 800 801 800
787 785 783 781 779 777 775 773 772 769 768 767 766 765 764 764 763 762 762 761 760 762 762 763 763 764 766 756 739 737 738 737 738 737 739 740 741 743 743 744 745 746 746 746 744 742 742 742 746 753 753 749 752 760 766 764 755 755 767 776 783 801 808 797 788 785 789 791 783 790 813 815 805 803 799 797 796 799 806 803 796 796 796 797 799 800 802 801
786 784 782 780 778 776 774 772 771 769 767 766 765 764 763 763 763 762 762 761 761 762 762 764 763 763 767 755 739 737 737 737 737 736 738 738 739 741 741 742 743 744 745 744 743 742 740 742 748 753 756 757 761 771 774 775 771 761 770 782 788 803 809 800 790 780 781 789 789 795 810 813 805 801 799 796 797 800 806 804 797 796 796 796 799 800 801 802
785 783 781 779 777 775 773 772 770 768 766 765 764 763 763 763 762 762 762 762 763 761 762 762 760 764 761 746 740 740 736 735 735 735 736 736 738 738 739 741 741 742 742 742 742 743 742 746 753 756 759 764 766 771 783 792 786 771 769 774 782 795 799 799 797 784 780 787 793 797 803 808 804 799 799 799 798 801 806 806 801 799 797 796 798 800 801 802
785 782 780 779 776 774 772 771 769 767 766 764 763 763 763 762 762 762 762 762 762 762 764 761 762 770 761 743 740 738 731 732 733 733 735 735 736 736 738 739 740 741 745 747 746 746 750 750 757 766 768 770 770 774 789 791 779 772 772 771 775 784 789 793 793 784 781 786 792 798 802 804 803 799 799 800 799 803 806 806 803 800 798 798 798 799 801 802
784 782 780 778 776 773 771 770 768 766 765 764 763 763 762 761 761 761 762 763 764 765 764 759 760 763 753 739 734 730 728 731 732 733 733 734 735 735 737 738 739 744 752 759 756 752 755 759 766 776 777 774 772 772 777 771 762 763 763 765 769 775 781 782 781 777 776 786 793 795 800 802 803 803 800 800 800 803 807 805 804 803 800 800 800 799 800 803
784 781 779 777 775 772 770 769 767 766 764 764 763 763 763 761 762 763 762 761 759 756 753 751 750 748 741 733 729 729 730 731 733 733 733 733 733 735 738 740 743 749 756 763 762 754 755 769 777 777 776 770 764 763 761 756 754 756 758 763 760 761 773 774 775 773 768 784 795 789 795 801 802 804 801 800 801 803 806 805 805 806 804 803 803 801 800 802
783 781 778 775 773 772 770 768 767 765 764 764 764 765 763 760 763 764 760 757 750 745 747 744 742 743 737 730 726 726 731 735 734 732 733 732 732 741 745 744 753 760 759 757 758 753 757 774 776 767 765 760 756 755 754 754 754 756 760 763 758 758 769 768 768 768 761 779 794 787 794 801 800 803 801 798 803 805 805 805 806 807 807 805 805 803 800 799
782 780 777 775 772 771 769 768 767 765 764 764 764 765 761 756 757 756 754 757 748 740 743 740 738 739 731 726 724 724 733 741 740 734 732 732 735 746 749 749 759 763 757 755 759 762 768 774 767 756 753 753 753 751 751 754 754 757 759 761 764 763 768 767 761 760 759 775 792 789 795 802 799 800 800 798 801 803 802 801 803 806 808 807 805 803 800 799
782 779 777 774 771 770 769 767 766 765 764 764 763 763 758 753 753 751 752 759 752 739 738 739 739 738 732 729 725 726 736 742 744 738 730 734 739 743 748 754 759 759 758 760 763 771 776 769 756 748 747 750 754 751 751 754 753 757 759 762 768 763 768 778 771 760 757 767 781 786 795 801 800 802 801 798 797 799 800 800 801 802 805 805 803 802 800 800
780 778 777 774 771 770 767 766 765 764 763 762 762 759 755 753 753 753 753 758 755 741 732 732 732 734 733 730 726 731 738 737 739 737 729 735 741 741 746 751 755 759 758 757 759 765 766 754 744 745 746 748 753 753 753 759 759 756 754 758 762 755 758 769 768 761 761 766 771 781 803 809 803 806 805 798 797 799 800 803 804 803 802 802 802 802 801 799
779 777 776 773 771 769 767 766 763 763 763 762 760 755 753 754 753 753 756 763 762 743 730 728 729 731 727 727 730 730 735 735 733 730 726 731 738 741 745 744 751 760 757 752 756 761 757 742 736 745 748 746 752 754 752 757 763 758 750 747 748 747 753 759 760 765 780 788 774 776 814 825 805 804 806 800 802 804 802 805 806 805 803 802 803 802 801 799
778 777 774 773 771 769 768 765 762 764 763 760 757 754 754 754 753 754 759 772 771 746 736 736 734 734 729 729 729 728 741 742 726 721 724 728 730 735 745 744 745 754 751 746 751 753 749 737 734 743 748 747 752 753 747 747 761 765 747 736 737 740 751 759 758 770 791 795 772 763 799 825 812 804 803 800 805 807 804 806 805 805 804 804 804 802 800 798
777 775 774 773 770 769 769 765 763 763 760 758 755 754 755 753 754 754 764 786 778 745 739 743 737 736 733 729 726 735 754 743 724 722 722 728 728 728 746 749 745 748 740 742 756 751 742 740 738 740 744 750 754 754 744 739 758 764 739 730 738 739 747 752 751 763 772 772 770 761 776 811 818 805 797 796 804 809 807 807 804 803 803 802 802 801 799 798
776 774 773 772 770 770 768 766 765 761 759 758 755 755 755 753 754 755 775 798 775 739 739 741 734 732 730 728 727 736 743 733 734 734 718 725 731 731 747 749 746 748 735 746 765 749 734 741 742 738 744 751 750 746 737 736 752 751 731 729 736 737 743 745 747 755 752 764 789 777 769 805 821 801 792 797 803 809 809 805 803 801 800 800 800 800 798 796
775 774 772 771 770 769 767 767 765 761 759 757 756 757 754 754 755 760 785 796 764 738 740 737 735 735 732 733 734 735 733 729 738 734 719 727 730 731 746 744 742 746 736 742 755 742 730 732 731 733 743 746 741 735 729 735 744 736 727 731 734 736 739 741 749 754 753 772 796 782 769 801 822 804 794 802 804 804 803 800 798 797 796 796 796 797 797 796
774 773 772 770 770 769 768 766 763 760 758 757 758 755 753 756 761 779 798 786 755 743 740 738 741 739 737 742 743 739 737 734 734 730 727 732 730 731 737 735 736 744 743 741 742 735 726 721 721 727 733 731 729 728 725 729 733 729 732 740 742 741 738 742 746 750 769 786 781 767 761 784 816 811 794 794 792 789 793 797 796 793 793 794 793 794 795 795
772 772 771 769 769 769 768 765 761 759 758 758 757 752 755 761 769 793 795 764 749 749 741 742 743 738 740 747 748 743 741 737 733 737 740 737 738 741 743 744 745 750 755 751 744 735 729 728 726 722 719 720 726 730 727 725 725 731 740 747 755 757 753 757 755 759 790 798 770 755 753 772 806 808 789 783 779 778 785 791 792 791 791 793 792 791 791 792
771 770 769 768 768 767 767 764 759 759 758 757 756 753 762 775 782 790 774 750 756 757 743 742 742 739 742 745 746 744 743 741 734 737 743 746 749 749 751 756 754 763 770 759 750 744 737 733 727 721 717 719 733 743 740 733 730 737 746 754 770 779 781 786 783 782 796 789 763 750 757 780 797 788 777 777 776 778 780 780 784 785 786 790 791 790 789 789
770 768 766 766 766 764 763 762 759 760 758 757 758 756 770 793 795 782 765 756 759 751 738 738 738 738 743 746 747 743 742 744 738 738 742 746 752 750 750 749 745 760 769 758 754 753 748 737 727 730 729 723 734 750 755 749 742 746 753 761 776 789 802 809 801 796 795 781 760 746 762 794 796 776 770 772 772 773 773 774 778 778 781 786 788 787 787 787
767 767 765 763 763 762 761 761 760 759 758 757 761 765 780 798 790 771 765 759 748 739 736 736 737 739 743 747 745 740 744 748 740 742 747 748 756 757 752 747 742 747 754 756 756 753 761 759 739 733 735 729 733 741 745 746 745 746 743 751 767 775 791 804 799 799 798 782 763 754 773 803 804 786 771 766 768 768 769 771 773 776 779 781 783 784 786 787
766 765 764 761 761 760 759 760 759 759 760 759 765 775 787 793 781 766 763 755 743 740 737 735 738 745 747 746 741 735 741 749 741 742 750 751 755 756 751 749 743 741 751 764 761 748 758 759 734 723 725 726 734 732 729 741 753 746 736 750 764 757 762 779 780 777 779 780 775 774 786 794 793 789 775 766 769 768 769 772 773 778 779 778 783 784 784 786
765 764 763 760 759 758 757 758 758 758 759 762 773 782 781 778 772 763 756 750 747 747 746 743 744 751 753 748 744 737 736 743 742 744 750 749 750 749 746 745 740 739 750 764 765 758 763 758 733 724 724 721 727 727 723 740 756 750 746 756 753 737 744 769 775 763 765 786 791 788 797 794 789 795 786 776 779 776 774 774 775 778 778 780 784 784 784 786
766 764 762 758 756 756 757 757 757 758 759 765 779 782 771 763 760 755 749 747 746 746 751 757 754 753 757 755 749 742 739 743 743 747 751 750 753 751 744 742 740 739 744 754 759 758 764 765 741 729 734 724 716 722 723 726 738 751 757 751 739 734 741 760 781 781 780 794 796 791 800 800 800 807 795 783 788 787 781 777 775 777 779 783 786 786 787 786
765 764 760 755 753 754 755 756 757 758 760 769 778 776 766 758 752 749 748 746 745 746 755 766 761 755 760 765 757 743 745 752 748 750 754 754 758 755 748 748 745 741 741 747 757 753 756 771 752 727 732 728 715 728 740 730 725 739 745 737 741 761 764 763 780 793 793 796 800 799 798 797 803 805 794 789 792 792 787 782 780 780 783 787 788 790 791 789
765 766 762 752 750 752 754 756 756 757 765 776 780 774 766 758 750 746 747 746 746 752 762 767 762 757 758 762 760 748 750 756 751 754 761 762 763 756 749 753 751 747 744 746 756 755 753 773 770 734 724 731 730 740 755 750 736 733 737 737 743 757 765 764 766 776 785 792 803 815 818 816 811 801 792 790 789 788 788 786 784 784 785 787 789 791 793 793
765 769 764 750 748 752 752 754 756 762 772 777 775 770 766 760 752 746 745 747 748 754 763 763 761 763 761 757 757 753 751 755 753 757 763 762 765 762 754 756 756 752 749 747 752 755 752 769 779 751 729 740 750 748 752 754 750 747 751 755 755 751 753 759 759 758 767 781 800 823 835 826 810 802 799 791 783 783 785 784 785 786 787 788 790 792 794 795
768 773 764 748 748 751 750 757 763 765 771 771 767 767 764 759 754 749 745 746 747 748 753 759 761 764 764 761 760 756 756 761 761 762 767 765 769 773 764 757 758 756 755 755 756 760 760 767 777 765 749 755 756 743 739 742 744 749 753 756 759 756 757 771 776 761 751 764 786 811 832 825 803 800 804 796 788 786 784 784 787 788 790 791 792 794 795 796
770 774 760 747 749 749 751 763 765 762 769 770 765 762 759 755 754 754 749 748 753 751 750 758 764 764 764 764 763 759 760 768 769 768 772 770 770 773 765 757 757 755 758 765 763 760 760 764 773 770 759 757 748 734 734 736 735 740 745 748 751 752 757 774 787 772 758 766 775 791 820 822 802 797 800 797 795 791 786 786 789 791 792 793 795 796 797 798
771 769 755 747 748 747 756 768 765 763 767 763 757 756 755 754 755 755 753 754 758 757 756 762 767 767 765 762 763 763 763 770 774 771 772 771 768 767 762 757 759 757 760 769 767 759 759 766 775 774 762 751 739 731 733 734 737 746 748 745 748 750 750 759 769 767 769 781 785 801 827 824 804 800 800 797 797 795 789 787 790 795 796 796 798 798 798 800
769 764 754 748 747 747 759 769 766 765 763 757 756 758 755 756 758 758 758 758 758 759 764 766 764 768 768 762 762 764 766 775 778 770 768 772 768 764 760 759 762 762 764 770 768 765 769 774 780 786 783 772 762 757 755 748 747 755 754 747 746 747 746 753 758 761 776 788 789 809 833 822 802 800 801 799 801 800 794 789 791 798 799 800 801 801 801 802
769 764 754 746 744 748 757 760 759 763 763 760 761 760 758 760 759 758 760 759 755 758 765 764 760 765 768 764 764 764 765 775 779 770 767 771 768 763 761 761 763 763 763 764 761 762 772 776 780 793 803 803 798 791 780 768 760 758 757 751 747 747 749 757 763 773 789 792 786 801 819 815 804 803 806 808 807 804 799 793 794 799 802 803 804 804 805 804
773 771 761 752 747 749 753 750 751 760 763 764 766 763 761 764 760 756 758 760 757 756 760 760 758 764 769 768 771 771 767 771 775 771 769 772 771 766 762 761 763 763 762 761 757 760 772 776 775 784 793 795 794 785 770 766 767 766 763 756 751 751 751 755 768 783 790 791 794 797 798 805 808 805 809 815 812 807 801 796 798 803 804 805 805 806 806 805
774 772 765 762 760 757 756 754 754 760 761 764 770 768 764 764 763 761 760 761 760 757 760 761 760 768 774 774 777 779 775 774 776 775 772 771 770 767 763 761 762 762 761 761 759 763 778 784 775 774 778 775 773 769 762 763 768 768 767 762 756 754 753 758 771 779 780 793 808 798 787 799 808 801 804 811 807 804 801 798 801 804 805 806 806 807 807 807
773 768 760 763 768 767 766 764 760 761 762 764 767 767 767 767 767 769 766 761 759 759 765 769 768 770 775 775 781 786 784 783 785 783 778 774 772 771 767 763 762 761 761 763 764 767 782 789 777 771 776 771 765 765 763 764 766 765 765 762 757 755 756 760 766 767 771 789 801 791 788 799 802 797 799 799 798 800 800 797 798 801 803 805 807 809 810 810
772 770 762 761 767 767 766 764 761 763 767 769 769 768 769 771 771 771 770 767 766 764 767 775 774 771 773 773 779 788 789 790 793 789 782 779 776 775 775 773 767 763 763 768 769 769 781 789 779 775 780 775 768 766 764 765 768 767 765 762 759 759 760 761 763 763 768 780 784 783 792 799 798 799 798 793 793 795 794 794 797 800 804 806 807 810 811 811
778 780 774 770 769 766 764 762 761 766 769 770 774 772 770 774 776 774 772 773 777 773 769 773 775 772 773 774 778 785 787 787 790 787 782 783 781 778 780 780 775 770 768 772 773 772 781 788 780 777 788 786 774 769 769 770 772 772 770 767 764 765 766 766 767 766 771 784 787 788 799 805 802 801 797 791 791 792 794 798 800 802 805 807 810 812 813 813
781 780 778 779 776 769 766 764 762 769 774 774 776 775 773 777 778 776 775 773 776 778 774 773 776 774 775 777 779 782 781 779 782 781 778 780 780 778 779 778 777 778 777 776 777 776 781 787 780 782 798 797 781 776 775 771 772 776 777 774 770 771 773 771 769 768 775 790 798 800 806 809 803 798 797 794 794 798 801 803 804 805 806 809 813 816 817 818
781 778 775 779 781 772 767 766 764 772 779 776 775 775 777 778 776 778 782 777 771 774 774 773 776 778 781 784 784 781 778 776 777 775 773 774 773 772 775 775 774 780 782 781 783 781 781 788 788 790 803 800 786 781 777 776 787 793 783 776 774 772 773 772 770 769 772 781 793 801 805 803 798 797 800 800 800 803 805 806 809 810 809 811 814 817 820 821